Satellite: AO-49
Catalog number: 27605
Epoch time:      05267.64846934
Element set:    0848
Inclination:      064.5581 deg
RA of node:       192.9145 deg
Eccentricity:    0.0073932
Arg of perigee:   219.7790 deg
Mean anomaly:     139.7886 deg
Mean motion:   14.72133259 rev/day
Decay rate:        2.2e-07 rev/day^2
Epoch rev:           14849
Checksum:              356

Satellite: SO-50
Catalog number: 27607
Epoch time:      05267.63399118
Element set:    0828
Inclination:      064.5584 deg
RA of node:       199.1334 deg
Eccentricity:    0.0074306
Arg of perigee:   218.4969 deg
Mean anomaly:     141.0846 deg
Mean motion:   14.71029733 rev/day
Decay rate:       1.85e-06 rev/day^2
Epoch rev:           14836
Checksum:              333

Satellite: AO-51
Catalog number: 28375
Epoch time:      05267.25044721
Element set:    0349
Inclination:      098.2070 deg
RA of node:       325.8359 deg
Eccentricity:    0.0083900
Arg of perigee:   292.5372 deg
Mean anomaly:     066.6952 deg
Mean motion:   14.40479824 rev/day
Decay rate:        4.5e-07 rev/day^2
Epoch rev:           06488
Checksum:              326

/EX
SB KEPS @ AMSAT  $ORB05268.W
Orbital Elements  05268.WEATHER

HR AMSAT ORBITAL ELEMENTS FOR WEATHER SATELLITES
FROM WA5QGD FORT WORTH,TX September 25, 2005
Send SUBSCRIBE KEPS/UNSUBSCRIBE KEPS to majordomo@amsat.org only
BID: ORB05268.W
TO ALL RADIO AMATEURS BT

Satellite: NOAA-10
Catalog number: 16969
Epoch time:      05267.73509274
Element set:    0894
Inclination:      098.7666 deg
RA of node:       273.7481 deg
Eccentricity:    0.0012067
Arg of perigee:   199.4730 deg
Mean anomaly:     160.5970 deg
Mean motion:   14.27269905 rev/day
Decay rate:       -3.2e-07 rev/day^2
Epoch rev:           98929
Checksum:              360

Satellite: NOAA-11
Catalog number: 19531
Epoch time:      05267.73065785
Element set:    0766
Inclination:      098.8433 deg
RA of node:       353.8640 deg
Eccentricity:    0.0011802
Arg of perigee:   029.6031 deg
Mean anomaly:     330.5820 deg
Mean motion:   14.14768901 rev/day
Decay rate:        9.9e-07 rev/day^2
Epoch rev:           87700
Checksum:              311

Satellite: NOAA-12
Catalog number: 21263
Epoch time:      05267.71157126
Element set:    0254
Inclination:      098.7112 deg
RA of node:       257.4149 deg
Eccentricity:    0.0013412
Arg of perigee:   136.9109 deg
Mean anomaly:     223.3102 deg
Mean motion:   14.25468704 rev/day
Decay rate:        8.3e-07 rev/day^2
Epoch rev:           74642
Checksum:              277

Satellite: MET-3/5
Catalog number: 21655
Epoch time:      05267.85087378
Element set:    0925
Inclination:      082.5507 deg
RA of node:       088.2581 deg
Eccentricity:    0.0012903
Arg of perigee:   349.9204 deg
Mean anomaly:     010.1683 deg
Mean motion:   13.17002799 rev/day
Decay rate:        5.1e-07 rev/day^2
Epoch rev:           67843
Checksum:              317

Satellite: MET-2/21
Catalog number: 22782
Epoch time:      05267.70524259
Element set:    0310
Inclination:      082.5520 deg
RA of node:       182.0463 deg
Eccentricity:    0.0021931
Arg of perigee:   201.0421 deg
Mean anomaly:     158.9841 deg
Mean motion:   13.83594881 rev/day
Decay rate:       1.42e-06 rev/day^2
Epoch rev:           60933
Checksum:              280

Satellite: OKEAN-4
Catalog number: 23317
Epoch time:      05267.72417452
Element set:    0742
Inclination:      082.5423 deg
RA of node:       164.5849 deg
Eccentricity:    0.0022048
Arg of perigee:   164.9036 deg
Mean anomaly:     195.2838 deg
Mean motion:   14.82233035 rev/day
Decay rate:       4.03e-06 rev/day^2
Epoch rev:           59065
Checksum:              300

Satellite: NOAA-14
Catalog number: 23455
Epoch time:      05267.73665197
Element set:    0775
Inclination:      099.0795 deg
RA of node:       317.6452 deg
Eccentricity:    0.0010080
Arg of perigee:   082.4399 deg
Mean anomaly:     277.7902 deg
Mean motion:   14.13598343 rev/day
Decay rate:       -6.6e-07 rev/day^2
Epoch rev:           55356
Checksum:              341

Satellite: SICH-1
Catalog number: 23657
Epoch time:      05267.67468281
Element set:    0545
Inclination:      082.5277 deg
RA of node:       305.4831 deg
Eccentricity:    0.0024666
Arg of perigee:   151.9922 deg
Mean anomaly:     208.2645 deg
Mean motion:   14.81236302 rev/day
Decay rate:       3.11e-06 rev/day^2
Epoch rev:           54268
Checksum:              305

Satellite: NOAA-15
Catalog number: 25338
Epoch time:      05267.52793086
Element set:    0197
Inclination:      098.5155 deg
RA of node:       272.8500 deg
Eccentricity:    0.0011684
Arg of perigee:   070.8803 deg
Mean anomaly:     289.3632 deg
Mean motion:   14.24540214 rev/day
Decay rate:        7.1e-07 rev/day^2
Epoch rev:           38289
Checksum:              316

Satellite: RESURS
Catalog number: 25394
Epoch time:      05268.89568671
Element set:     190
Inclination:      098.5294 deg
RA of node:       335.1995 deg
Eccentricity:    0.0001061
Arg of perigee:   185.9535 deg
Mean anomaly:     174.1631 deg
Mean motion:   14.24080982 rev/day
Decay rate:        2.6e-07 rev/day^2
Epoch rev:           37478
Checksum:              328

Satellite: FENGYUN1
Catalog number: 25730
Epoch time:      05267.92263902
Element set:    0527
Inclination:      098.6126 deg
RA of node:       265.7433 deg
Eccentricity:    0.0014630
Arg of perigee:   173.3651 deg
Mean anomaly:     186.7736 deg
Mean motion:   14.11799195 rev/day
Decay rate:       -8.0e-08 rev/day^2
Epoch rev:           32858
Checksum:              318

